N-1 R/B

基本信息
目录编号:
8710
目录名称:
N-1 R/B
国际标识:
1976-019B
轨道中心:
EARTH
物体状态:
在轨
发射日期:
1976-02-29 UTC
国别:
日本 (JP)
轨道信息
数据来源: 国际轨道数据
星历时间: 2026-07-13T15:40:54+0800
半长轴: 7377.72km
偏心率: 0.001567
轨道倾角: 69.676°
近地点辐角: 287.907°
升交点赤经: 158.001°
平近点角: 177.867°
近地点: 988.022km
远地点: 1011.144km
周期: 105.110分钟
每日圈数: 13.699969
详细信息
发射场:
TNSTA
轨道高度:
LEO
数据来源:
AOE Integration Group
参考系:
TEME
时间系统:
UTC
历元类型:
SGP4
2D轨道图
3D轨道图
轨道高度分析图
轨道倾角分析图
轨道综合分析图
查看轨道综合分析图